[[{"header":{"parameterUnit":"m.s-1","parameterCategory":2,"la1":30.2991,"la2":30.254,"lo1":-89.0895,"lo2":-89.0444,"dy":0.0017,"dx":0.0017,"nx":28,"ny":28,"refTime":"2024-02-07T09:00:00:Z","depth":"0","parameterNumber":2,"parameterNumberName":"U-component_of_CURRENTS"},"data":[0,0,0,0,0,0,0,0,0,0,0,0,0,0,0,0,0,0,0,0,0,0,0,0,0,0,0,0,0,0,0,0,0,0,0,0,0,0,0,0,0,0,0,0,0,0,0,0,0,0,0,0,0,0,0,0,0,0,0.3281,0.3281,0,0.3277,0.3276,0.3276,0.3244,0.3244,0.3243,0.3243,0.3201,0.3201,0.32,0,0,0,0,0,0,0,0,0,0,0,0,0,0.3277,0.3277,0.3281,0.3281,0.3281,0.3277,0.3276,0.3276,0.3244,0.3244,0.3243,0.3243,0.3202,0.3201,0.32,0,0,0,0,0,0,0,0,0,0,0,0,0,0.3274,0.3277,0.3281,0.3267,0.3266,0.3277,0.3276,0.3276,0.3245,0.3244,0.3243,0.3242,0.3202,0.3201,0.32,0.321,0,0,0.3197,0.3197,0,0,0,0,0,0,0,0,0.3274,0.3273,0.3269,0.3268,0.3267,0.3263,0.326,0.3253,0.3245,0.325,0.3243,0.3242,0.3221,0.3218,0.3216,0.3208,0.3206,0.3197,0.3196,0.3196,0.3196,0,0,0,0,0,0,0,0.3274,0.3273,0.3276,0.3269,0.3268,0.3267,0.3265,0.3258,0.3237,0.3249,0.3248,0.3252,0.322,0.3217,0.3214,0.3205,0.3197,0.3196,0.3196,0.3195,0.3229,0.323,0,0,0,0,0,0,0.328,0.3274,0.3276,0.3276,0.3272,0.3268,0.3265,0.3262,0.3237,0.3234,0.3253,0.3251,0.3219,0.3216,0.3213,0.3236,0.3196,0.3195,0.3195,0.3227,0.3229,0.3231,0,0,0,0,0,0,0.328,0.328,0.3276,0.3278,0.3277,0.3269,0.3265,0.3263,0.3263,0.3241,0.3236,0.3257,0.3218,0.3214,0.3217,0.3233,0.3195,0.3194,0.3225,0.3228,0.323,0.3273,0,0,0,0,0,0,0.328,0.328,0.3282,0.3278,0.3278,0.3288,0.3266,0.3263,0.3269,0.3266,0.3243,0.3238,0.3217,0.3219,0.3216,0.3231,0.3193,0.3224,0.3226,0.3229,0.327,0.3277,0.3282,0,0,0,0,0,0.328,0.328,0.3282,0.3282,0.3279,0.3289,0.3288,0.3277,0.327,0.3274,0.3263,0.3239,0.3234,0.3219,0.3216,0.3231,0.3222,0.3226,0.3229,0.3267,0.3275,0.3282,0,0,0,0,0,0,0.3276,0.3278,0.3278,0.3279,0.3289,0.3284,0.3287,0.3286,0.3281,0.3277,0.3254,0.3249,0.3262,0.3245,0.3229,0.3252,0.3226,0.3229,0.3257,0.3264,0.327,0.3295,0.3192,0,0,0,0,0,0.328,0.328,0.3288,0.329,0.3295,0.3296,0.3299,0.3296,0.3293,0.329,0.3276,0.3268,0.3273,0.3267,0.3266,0.3273,0.3282,0.3284,0.329,0.3295,0.3315,0.3347,0.3357,0.3241,0.3241,0.3241,0,0,0.3276,0.3281,0.3279,0.329,0.3293,0.3308,0.3294,0.3304,0.3319,0.3287,0.3297,0.3291,0.3284,0.3295,0.3298,0.328,0.3333,0.3299,0.3303,0.3321,0.3351,0.3362,0.3372,0.3243,0.3243,0.3243,0,0,0.3278,0.3279,0.3284,0.3296,0.3312,0.3319,0.3326,0.333,0.3335,0.3344,0.3337,0.3349,0.3332,0.3344,0.3345,0.3389,0.337,0.338,0.3421,0.3451,0.346,0.3469,0.3492,0.3503,0.3375,0.3375,0.3375,0,0.3278,0.3276,0.3288,0.3303,0.3309,0.3327,0.3336,0.3357,0.3362,0.337,0.335,0.3368,0.3362,0.3398,0.3416,0.3403,0.3412,0.3388,0.3459,0.3467,0.3476,0.3497,0.3508,0.3377,0.3377,0.3377,0.3377,0,0.3282,0.3285,0.329,0.3313,0.3332,0.3338,0.3372,0.3392,0.3395,0.3407,0.3436,0.3436,0.3446,0.345,0.3445,0.3505,0.349,0.3467,0.3438,0.349,0.3509,0.352,0.3381,0.338,0.3379,0.3379,0,0,0.3258,0.3284,0.3284,0.3294,0.3328,0.3344,0.3387,0.342,0.3455,0.3462,0.3496,0.3519,0.3523,0.3529,0.3531,0.3563,0.363,0.3544,0.3544,0.3564,0.3694,0.366,0.3668,0.3613,0.3615,0.3617,0.3682,0,0.3249,0.3269,0.3283,0.3306,0.3318,0.3351,0.3391,0.3435,0.3467,0.3514,0.3537,0.3571,0.3554,0.3566,0.3599,0.3632,0.3661,0.3615,0.3644,0.3645,0.3606,0.368,0.3508,0.355,0.3692,0.3694,0.3695,0,0.3236,0.3254,0.3262,0.3301,0.3309,0.3334,0.3398,0.3438,0.3521,0.3544,0.3588,0.3614,0.3684,0.3653,0.3731,0.3699,0.3708,0.3723,0.3725,0.369,0.3632,0.3522,0.3564,0.3471,0.3712,0.371,0.3709,0,0.3203,0.3234,0.3234,0.3245,0.33,0.3316,0.3357,0.344,0.348,0.3579,0.3609,0.3685,0.3727,0.376,0.3802,0.3768,0.3884,0.3829,0.3805,0.3802,0.3662,0.3643,0.3616,0.3883,0.3883,0.3883,0.3883,0,0.3169,0.317,0.3221,0.322,0.324,0.3302,0.3341,0.3399,0.3493,0.3546,0.3623,0.3685,0.3758,0.3827,0.384,0.3874,0.3909,0.3843,0.3829,0.3672,0.3654,0.3572,0.3519,0.3886,0.3885,0.3885,0.3884,0,0.3111,0.3135,0.3143,0.3199,0.3215,0.3236,0.3311,0.335,0.3451,0.353,0.3563,0.3704,0.3801,0.3864,0.3948,0.3919,0.3839,0.395,0.3767,0.3731,0.3591,0.3546,0.3411,0.3312,0.3922,0.3922,0.3921,0,0.3076,0.3074,0.3114,0.3115,0.3128,0.3172,0.3196,0.3305,0.3352,0.3535,0.3562,0.3714,0.3794,0.3916,0.392,0.3945,0.3826,0.3789,0.3694,0.3591,0.3531,0.3399,0.3315,0.3521,0.3517,0.3515,0.3512,0,0.3013,0.3023,0.303,0.3039,0.3051,0.3069,0.3123,0.3155,0.3294,0.3369,0.35,0.3599,0.3751,0.373,0.3795,0.3785,0.3589,0.3731,0.3661,0.3264,0.3078,0.2972,0.3477,0.3487,0.349,0.3491,0.3493,0.3494,0.296,0.2945,0.2957,0.2945,0.2958,0.2953,0.2927,0.3007,0.3063,0.315,0.3351,0.3422,0.3519,0.3591,0.3567,0.3434,0.3427,0.3297,0.3269,0.3159,0.3005,0.3471,0.3444,0.3446,0.3448,0.345,0.3451,0,0.2879,0.2867,0.2863,0.2832,0.2789,0.2839,0.2852,0.281,0.2813,0.2961,0.3052,0.3142,0.3137,0.3194,0.3141,0.2992,0.2842,0.2894,0.2651,0.2605,0.3051,0.2977,0.2801,0.2801,0.2801,0.2801,0.2802,0.2802,0.2837,0.2787,0.2771,0.2663,0.2637,0.2543,0.2515,0.2492,0.2542,0.2571,0.2619,0.2734,0.29,0.2877,0.2741,0.2665,0.2444,0.2298,0.2332,0.2635,0.267,0.2702,0.2622,0.2374,0.2374,0.1756,0.1751,0.1747]},{"header":{"parameterUnit":"m.s-1","parameterCategory":2,"la1":30.2991,"la2":30.254,"lo1":-89.0895,"lo2":-89.0444,"dy":0.0017,"dx":0.0017,"nx":28,"ny":28,"refTime":"2024-02-07T09:00:00:Z","depth":"0","parameterNumber":3,"parameterNumberName":"V-component_of_CURRENTS"},"data":[0,0,0,0,0,0,0,0,0,0,0,0,0,0,0,0,0,0,0,0,0,0,0,0,0,0,0,0,0,0,0,0,0,0,0,0,0,0,0,0,0,0,0,0,0,0,0,0,0,0,0,0,0,0,0,0,0,0,0.031,0.0309,0,0.0264,0.0264,0.0263,0.0227,0.0227,0.0227,0.0226,0.0167,0.0165,0.0164,0,0,0,0,0,0,0,0,0,0,0,0,0,0.0308,0.0309,0.031,0.0309,0.0309,0.0264,0.0263,0.0263,0.0227,0.0227,0.0227,0.0226,0.0167,0.0166,0.0164,0,0,0,0,0,0,0,0,0,0,0,0,0,0.0289,0.0309,0.031,0.0287,0.0285,0.0264,0.0263,0.0262,0.0227,0.0227,0.0227,0.0226,0.0168,0.0166,0.0164,0.0157,0,0,0.0157,0.0156,0,0,0,0,0,0,0,0,0.029,0.0289,0.0291,0.0288,0.0286,0.0252,0.0241,0.0227,0.0227,0.0247,0.0226,0.0226,0.0195,0.0191,0.0181,0.0154,0.0151,0.0157,0.0156,0.0155,0.0154,0,0,0,0,0,0,0,0.0292,0.029,0.029,0.029,0.0287,0.0259,0.0257,0.0238,0.0222,0.0245,0.0243,0.0241,0.0194,0.0183,0.0179,0.0151,0.0157,0.0155,0.0154,0.0153,0.0115,0.0115,0,0,0,0,0,0,0.0304,0.0292,0.0291,0.0289,0.0289,0.026,0.0257,0.0262,0.0222,0.0217,0.0241,0.0239,0.0187,0.0182,0.0177,0.0185,0.0155,0.0153,0.0152,0.0115,0.0115,0.0115,0,0,0,0,0,0,0.0304,0.0305,0.0293,0.029,0.0287,0.0261,0.0267,0.0261,0.0255,0.022,0.0213,0.0241,0.0186,0.018,0.0168,0.0182,0.0152,0.015,0.0114,0.0115,0.0115,0.019,0,0,0,0,0,0,0.0305,0.0305,0.0313,0.0291,0.0288,0.0293,0.0267,0.0261,0.0254,0.0252,0.0217,0.0211,0.0186,0.0171,0.0165,0.0179,0.0149,0.0114,0.0115,0.0115,0.0187,0.0193,0.0197,0,0,0,0,0,0.0305,0.0322,0.0314,0.0314,0.03,0.0293,0.0289,0.0267,0.0255,0.0259,0.0234,0.0212,0.017,0.017,0.0163,0.0176,0.0114,0.0114,0.0115,0.0185,0.0192,0.0197,0,0,0,0,0,0,0.0324,0.0319,0.0311,0.0325,0.0314,0.0288,0.0289,0.0274,0.0257,0.0253,0.0218,0.021,0.0202,0.0178,0.0178,0.0164,0.0137,0.0137,0.0192,0.0199,0.0204,0.0227,0.0147,0,0,0,0,0,0.0334,0.0346,0.0332,0.0343,0.0339,0.0315,0.0309,0.0296,0.0278,0.0269,0.0245,0.0218,0.0198,0.0191,0.0166,0.0164,0.0133,0.0165,0.017,0.0175,0.0189,0.0153,0.0157,0.0117,0.0117,0.0117,0,0,0.0342,0.0343,0.0348,0.0347,0.0335,0.0344,0.0311,0.0309,0.0319,0.0266,0.0269,0.0235,0.02,0.0194,0.0189,0.0178,0.0169,0.0176,0.0181,0.0192,0.0154,0.0158,0.0162,0.0117,0.0117,0.0117,0,0,0.0373,0.0368,0.039,0.0385,0.0378,0.0367,0.0371,0.0351,0.0344,0.0339,0.0304,0.0283,0.0252,0.0233,0.0219,0.0239,0.0195,0.0226,0.0278,0.0243,0.0247,0.0249,0.0211,0.021,0.0233,0.0233,0.0233,0,0.0383,0.0411,0.0393,0.0411,0.0417,0.0384,0.0409,0.0396,0.0375,0.0377,0.035,0.0306,0.0273,0.0273,0.0277,0.0254,0.0223,0.026,0.0252,0.0253,0.0255,0.0215,0.0213,0.0237,0.0236,0.0236,0.0236,0,0.0429,0.0448,0.0459,0.0476,0.0481,0.0493,0.0481,0.0484,0.0467,0.0449,0.0438,0.0387,0.0364,0.0346,0.0317,0.0316,0.0287,0.026,0.0241,0.0264,0.022,0.0216,0.0242,0.0241,0.0239,0.0239,0,0,0.0463,0.0489,0.0494,0.0519,0.0518,0.0533,0.0552,0.0564,0.0587,0.0542,0.0562,0.0509,0.0471,0.0453,0.0409,0.0379,0.0354,0.0331,0.0327,0.0303,0.0274,0.0271,0.0266,0.0325,0.0325,0.0325,0.0238,0,0.0506,0.0563,0.0563,0.0618,0.0647,0.0632,0.066,0.0663,0.0649,0.0655,0.0596,0.0584,0.0515,0.0505,0.0464,0.039,0.0348,0.038,0.0247,0.0243,0.0246,0.0263,0.0296,0.0224,0.0234,0.0233,0.0232,0,0.0556,0.0591,0.0657,0.0707,0.072,0.0748,0.0796,0.0814,0.0804,0.0793,0.076,0.07,0.0656,0.0587,0.0467,0.049,0.0389,0.0319,0.0313,0.0286,0.0235,0.0201,0.0216,0.0105,0.0226,0.0226,0.0227,0,0.0606,0.066,0.0724,0.0736,0.0782,0.0819,0.0846,0.0857,0.0892,0.0878,0.0889,0.0808,0.0785,0.0652,0.05,0.0479,0.0364,0.0313,0.021,0.0208,0.0199,0.0197,0.0103,0.0216,0.0217,0.0217,0.0217,0,0.0658,0.0707,0.0756,0.079,0.0878,0.0883,0.0966,0.098,0.1007,0.1066,0.0962,0.0986,0.08,0.0705,0.0541,0.0381,0.0389,0.0229,0.0192,0.0225,0.0227,0.01,0.0003,0.0214,0.0214,0.0215,0.0215,0,0.0704,0.073,0.0809,0.0875,0.0905,0.0969,0.1055,0.1111,0.1121,0.1196,0.1195,0.1125,0.101,0.081,0.0611,0.0456,0.0212,0.0218,0.0272,0.0244,0.0042,-0.0052,-0.0201,-0.0263,0.0088,0.0088,0.0087,0,0.0733,0.0779,0.0877,0.0934,0.0969,0.106,0.1128,0.1173,0.1243,0.1293,0.1343,0.125,0.1223,0.0927,0.064,0.036,0.0207,0.0188,0.0151,0.0049,-0.0085,-0.0135,-0.018,0.0156,0.0156,0.0157,0.0157,0,0.079,0.0825,0.089,0.1006,0.1093,0.1198,0.1301,0.1377,0.1445,0.1515,0.1593,0.1572,0.1302,0.1052,0.0665,0.046,0.0115,0.0182,0.0062,-0.0044,-0.0092,-0.0173,0.0188,0.0158,0.0158,0.0158,0.0158,0.0158,0.0833,0.089,0.0977,0.1086,0.1189,0.1325,0.1419,0.1541,0.1679,0.1796,0.1784,0.1794,0.1425,0.0914,0.0632,0.0153,0.011,-0.0,-0.011,-0.0152,-0.0197,0.0174,0.0115,0.0114,0.0114,0.0114,0.0114,0,0.0882,0.0948,0.105,0.1184,0.1296,0.1348,0.1527,0.1634,0.1811,0.1928,0.2003,0.1853,0.1394,0.0918,0.0261,-0.0066,-0.0184,-0.0256,-0.0322,-0.036,-0.0036,-0.0013,-0.0082,-0.0082,-0.0082,-0.0082,-0.0082,-0.0082,0.0912,0.1008,0.1059,0.1245,0.1342,0.1505,0.161,0.1781,0.191,0.2063,0.2094,0.2089,0.1734,0.0575,-0.0177,-0.0353,-0.0555,-0.0614,-0.0742,-0.052,-0.0503,-0.0488,-0.0486,-0.0653,-0.0654,-0.0979,-0.0983,-0.0986]}],[{"header":{"parameterUnit":"m.s-1","parameterCategory":2,"la1":30.2991,"la2":30.254,"lo1":-89.0895,"lo2":-89.0444,"dy":0.0017,"dx":0.0017,"nx":28,"ny":28,"refTime":"2024-02-07T09:00:00:Z","depth":"2","parameterNumber":2,"parameterNumberName":"U-component_of_CURRENTS"},"data":[0,0,0,0,0,0,0,0,0,0,0,0,0,0,0,0,0,0,0,0,0,0,0,0,0,0,0,0,0,0,0,0,0,0,0,0,0,0,0,0,0,0,0,0,0,0,0,0,0,0,0,0,0,0,0,0,0,0,0.2928,0.2929,0,0.2938,0.2938,0.2938,0.2923,0.2923,0.2923,0.2923,0.2908,0.2908,0.2908,0,0,0,0,0,0,0,0,0,0,0,0,0,0.2909,0.2909,0.2928,0.2929,0.2929,0.2938,0.2938,0.2938,0.2923,0.2923,0.2923,0.2922,0.2909,0.2908,0.2908,0,0,0,0,0,0,0,0,0,0,0,0,0,0.2915,0.2909,0.2928,0.2925,0.2925,0.2938,0.2938,0.2938,0.2923,0.2923,0.2923,0.2922,0.2909,0.2908,0.2908,0.2915,0,0,0.2908,0.2908,0,0,0,0,0,0,0,0,0.2915,0.2916,0.2925,0.2925,0.2925,0.2931,0.2926,0.293,0.2924,0.2921,0.2923,0.2922,0.2916,0.2915,0.2914,0.2915,0.2914,0.2908,0.2908,0.2907,0.2907,0,0,0,0,0,0,0,0.2915,0.2915,0.2929,0.2925,0.2925,0.2927,0.2927,0.2927,0.2918,0.2921,0.2921,0.2926,0.2915,0.2915,0.2914,0.2914,0.2908,0.2907,0.2907,0.2907,0.2963,0.2965,0,0,0,0,0,0,0.2918,0.2915,0.2929,0.293,0.2922,0.2928,0.2928,0.2928,0.2919,0.2918,0.2927,0.2926,0.2915,0.2914,0.2913,0.2952,0.2907,0.2907,0.2907,0.2962,0.2963,0.2965,0,0,0,0,0,0,0.2918,0.2919,0.2929,0.2925,0.2927,0.2929,0.2929,0.2928,0.2938,0.2924,0.2922,0.2938,0.2915,0.2914,0.2929,0.295,0.2907,0.2907,0.296,0.2962,0.2964,0.301,0,0,0,0,0,0,0.2917,0.2919,0.2925,0.2925,0.2927,0.2945,0.2929,0.2929,0.2942,0.2941,0.2933,0.293,0.2914,0.2929,0.2928,0.2949,0.2907,0.2958,0.2961,0.2964,0.3006,0.3013,0.3019,0,0,0,0,0,0.2916,0.2922,0.2925,0.2927,0.2934,0.2946,0.2947,0.2945,0.2943,0.2952,0.2951,0.2931,0.2948,0.293,0.2929,0.295,0.2956,0.296,0.2963,0.3003,0.3012,0.3019,0,0,0,0,0,0,0.2914,0.2921,0.2925,0.2932,0.2945,0.2945,0.2954,0.2956,0.2962,0.2963,0.2948,0.2946,0.297,0.2958,0.2939,0.2978,0.2951,0.2954,0.2981,0.2989,0.2996,0.3016,0.2907,0,0,0,0,0,0.2919,0.2925,0.2935,0.2943,0.2952,0.2958,0.2965,0.2967,0.2971,0.2974,0.297,0.2972,0.2984,0.2984,0.299,0.3006,0.3012,0.3022,0.3029,0.3034,0.3052,0.3082,0.3093,0.2977,0.2977,0.2977,0,0,0.2918,0.2926,0.2928,0.2944,0.2952,0.297,0.296,0.2977,0.2997,0.2972,0.2995,0.2997,0.2996,0.3018,0.3027,0.3008,0.3071,0.3039,0.3043,0.3058,0.3087,0.3099,0.3109,0.2979,0.2979,0.2979,0,0,0.2923,0.2932,0.2941,0.2956,0.2978,0.2986,0.2997,0.3009,0.3019,0.3039,0.3038,0.3059,0.3058,0.3072,0.3076,0.3126,0.311,0.3124,0.3165,0.3194,0.3204,0.3213,0.3232,0.3242,0.312,0.312,0.312,0,0.2926,0.2932,0.2947,0.2966,0.2976,0.2997,0.3012,0.3035,0.3052,0.3066,0.3052,0.3088,0.3088,0.3129,0.315,0.3142,0.315,0.3129,0.3203,0.3211,0.3219,0.3237,0.3247,0.3123,0.3123,0.3122,0.3122,0,0.2936,0.2946,0.2955,0.2984,0.3006,0.3018,0.3055,0.3082,0.3094,0.311,0.3151,0.3158,0.3179,0.3185,0.3183,0.3245,0.3231,0.321,0.3179,0.3234,0.3249,0.3259,0.3127,0.3126,0.3125,0.3124,0,0,0.2915,0.2952,0.2953,0.2968,0.301,0.3028,0.3077,0.3117,0.3155,0.3175,0.3215,0.3249,0.3258,0.3267,0.3272,0.3303,0.3368,0.3286,0.3286,0.33,0.3431,0.3376,0.3381,0.3356,0.3358,0.336,0.3416,0,0.2911,0.294,0.2959,0.2991,0.3009,0.3046,0.309,0.314,0.3178,0.3229,0.3258,0.3299,0.3288,0.3306,0.3339,0.337,0.3398,0.3355,0.3381,0.3382,0.3323,0.3392,0.3105,0.3127,0.3426,0.3428,0.3429,0,0.2904,0.2928,0.2948,0.2995,0.3006,0.3035,0.3108,0.3153,0.3239,0.3267,0.3319,0.3346,0.3416,0.339,0.3467,0.3439,0.3447,0.3458,0.346,0.3403,0.3347,0.3123,0.3134,0.3445,0.3444,0.3443,0.3442,0,0.2873,0.2914,0.2926,0.294,0.3004,0.3028,0.3074,0.3162,0.3207,0.3307,0.3343,0.3417,0.3463,0.3494,0.3532,0.3504,0.3606,0.3559,0.3515,0.351,0.327,0.324,0.361,0.361,0.361,0.361,0.361,0,0.2844,0.2854,0.2915,0.2921,0.2953,0.3018,0.3069,0.3131,0.3228,0.3282,0.3364,0.3423,0.3495,0.3557,0.3565,0.3586,0.3631,0.3547,0.3532,0.3277,0.325,0.3525,0.3515,0.3612,0.3612,0.3611,0.3611,0,0.2791,0.2823,0.2843,0.291,0.2931,0.2962,0.3048,0.3091,0.3199,0.3278,0.3312,0.345,0.3536,0.3591,0.3662,0.3627,0.3648,0.3636,0.3337,0.3286,0.3518,0.3509,0.3587,0.3585,0.3584,0.3584,0.3583,0,0.276,0.2766,0.2822,0.2831,0.2853,0.2909,0.2941,0.3055,0.3103,0.3282,0.3307,0.3451,0.3511,0.3609,0.3584,0.3588,0.3653,0.3318,0.3215,0.3544,0.3522,0.3514,0.3507,0.2907,0.29,0.2895,0.2891,0,0.2704,0.2722,0.2739,0.2765,0.2789,0.2815,0.2878,0.2913,0.305,0.3117,0.3232,0.3311,0.3427,0.3321,0.3355,0.3316,0.3295,0.3217,0.3639,0.297,0.2911,0.2886,0.29,0.2846,0.2851,0.2854,0.2856,0.2858,0.2657,0.2651,0.2675,0.2681,0.2706,0.2711,0.2694,0.2767,0.2817,0.289,0.3058,0.3066,0.3115,0.3026,0.2939,0.2869,0.3093,0.2929,0.2941,0.2959,0.2883,0.2827,0.2732,0.2735,0.2738,0.2741,0.2744,0,0.2585,0.2583,0.2591,0.2579,0.2548,0.2605,0.2627,0.2582,0.2574,0.2681,0.2736,0.2547,0.2487,0.2536,0.2358,0.2363,0.2302,0.2263,0.2143,0.2191,0.2234,0.2116,0.1763,0.176,0.1757,0.1754,0,0,0.2548,0.251,0.25,0.2415,0.2407,0.233,0.2312,0.2275,0.2298,0.2259,0.2233,0.2405,0.2482,0.2094,0.2043,0.187,0.2014,0.1799,0.2591,0.2501,0.2539,0.2633,0.2511,0,0,0,0,0]},{"header":{"parameterUnit":"m.s-1","parameterCategory":2,"la1":30.2991,"la2":30.254,"lo1":-89.0895,"lo2":-89.0444,"dy":0.0017,"dx":0.0017,"nx":28,"ny":28,"refTime":"2024-02-07T09:00:00:Z","depth":"2","parameterNumber":3,"parameterNumberName":"V-component_of_CURRENTS"},"data":[0,0,0,0,0,0,0,0,0,0,0,0,0,0,0,0,0,0,0,0,0,0,0,0,0,0,0,0,0,0,0,0,0,0,0,0,0,0,0,0,0,0,0,0,0,0,0,0,0,0,0,0,0,0,0,0,0,0,0.0239,0.0239,0,0.0198,0.0198,0.0197,0.0166,0.0166,0.0166,0.0166,0.0113,0.0111,0.011,0,0,0,0,0,0,0,0,0,0,0,0,0,0.0239,0.0239,0.0239,0.0239,0.0239,0.0198,0.0198,0.0197,0.0166,0.0166,0.0166,0.0166,0.0113,0.0112,0.011,0,0,0,0,0,0,0,0,0,0,0,0,0,0.0221,0.0239,0.0239,0.0219,0.0217,0.0198,0.0198,0.0197,0.0166,0.0166,0.0166,0.0166,0.0114,0.0112,0.011,0.0103,0,0,0.0104,0.0103,0,0,0,0,0,0,0,0,0.0223,0.0221,0.0223,0.0221,0.0218,0.0188,0.0178,0.0165,0.0166,0.0184,0.0166,0.0166,0.0138,0.0134,0.0125,0.01,0.0098,0.0104,0.0103,0.0102,0.0101,0,0,0,0,0,0,0,0.0224,0.0223,0.0222,0.0222,0.022,0.0195,0.0192,0.0175,0.0162,0.0183,0.0181,0.0178,0.0136,0.0127,0.0124,0.0097,0.0104,0.0102,0.0101,0.01,0.0064,0.0064,0,0,0,0,0,0,0.0235,0.0224,0.0223,0.0221,0.0221,0.0195,0.0192,0.0197,0.0162,0.0157,0.0179,0.0177,0.013,0.0126,0.0122,0.0128,0.0102,0.01,0.0099,0.0064,0.0064,0.0064,0,0,0,0,0,0,0.0235,0.0235,0.0225,0.0222,0.0219,0.0196,0.0201,0.0196,0.0191,0.0159,0.0154,0.0179,0.013,0.0124,0.0113,0.0125,0.0099,0.0097,0.0063,0.0064,0.0064,0.013,0,0,0,0,0,0,0.0235,0.0236,0.0244,0.0223,0.022,0.0223,0.0201,0.0196,0.019,0.0188,0.0157,0.0152,0.0129,0.0116,0.0112,0.0122,0.0096,0.0063,0.0063,0.0064,0.0128,0.0133,0.0137,0,0,0,0,0,0.0236,0.0251,0.0244,0.0244,0.0231,0.0224,0.022,0.0201,0.0191,0.0194,0.0172,0.0153,0.0115,0.0115,0.0109,0.012,0.0063,0.0063,0.0064,0.0126,0.0132,0.0137,0,0,0,0,0,0,0.0253,0.0248,0.0241,0.0254,0.0243,0.022,0.022,0.0207,0.0192,0.019,0.0158,0.0151,0.0144,0.0122,0.0123,0.0108,0.0084,0.0084,0.0134,0.0139,0.0143,0.0164,0.0094,0,0,0,0,0,0.0261,0.0273,0.0259,0.0269,0.0266,0.0244,0.0239,0.0228,0.0211,0.0204,0.0182,0.0158,0.014,0.0133,0.0111,0.0107,0.008,0.0108,0.0112,0.0116,0.0128,0.0093,0.0095,0.0065,0.0065,0.0065,0,0,0.0269,0.0269,0.0274,0.0273,0.0262,0.027,0.024,0.0238,0.0247,0.0201,0.0203,0.0173,0.0142,0.0136,0.013,0.012,0.0109,0.0117,0.0121,0.013,0.0093,0.0096,0.0099,0.0065,0.0065,0.0065,0,0,0.0295,0.0292,0.0311,0.0307,0.03,0.029,0.0294,0.0275,0.0269,0.0265,0.0234,0.0215,0.0187,0.0169,0.0156,0.0173,0.0133,0.0161,0.0205,0.0171,0.0173,0.0175,0.0143,0.0142,0.0166,0.0166,0.0166,0,0.0304,0.0329,0.0314,0.0329,0.0335,0.0305,0.0327,0.0316,0.0297,0.0297,0.0275,0.0235,0.0205,0.0203,0.0206,0.0185,0.0158,0.019,0.0178,0.0179,0.018,0.0147,0.0144,0.0169,0.0169,0.0169,0.0168,0,0.0344,0.0362,0.0372,0.0387,0.0391,0.0402,0.039,0.0393,0.0378,0.0361,0.035,0.0305,0.0284,0.0266,0.0242,0.0237,0.0212,0.0187,0.0169,0.0187,0.0151,0.0147,0.0174,0.0173,0.0172,0.0171,0,0,0.0373,0.0397,0.0402,0.0425,0.0424,0.0438,0.0454,0.0463,0.048,0.0441,0.0456,0.041,0.0376,0.0359,0.032,0.029,0.0266,0.0247,0.0244,0.0224,0.019,0.0175,0.0169,0.0236,0.0236,0.0236,0.0162,0,0.0411,0.0462,0.0462,0.0512,0.0538,0.0525,0.0549,0.055,0.0535,0.0538,0.0484,0.0473,0.0414,0.0405,0.0366,0.0296,0.0259,0.0288,0.0168,0.0164,0.0155,0.0165,0.0185,0.0122,0.0158,0.0158,0.0157,0,0.0455,0.0486,0.0545,0.0591,0.0602,0.0627,0.0667,0.0683,0.067,0.0658,0.0627,0.0573,0.0531,0.0473,0.0362,0.0382,0.0295,0.023,0.0225,0.0188,0.0142,0.0107,0.0113,0.015,0.0151,0.0151,0.0152,0,0.0498,0.0548,0.0605,0.0616,0.0658,0.069,0.0714,0.0719,0.075,0.0732,0.074,0.0665,0.0643,0.0523,0.0384,0.0371,0.0255,0.0217,0.0118,0.0115,0.0099,0.0096,0.0131,0.0131,0.0131,0.0132,0.0132,0,0.0544,0.0588,0.0632,0.0663,0.0741,0.0747,0.0819,0.083,0.085,0.0898,0.0806,0.0821,0.0654,0.0562,0.0417,0.0266,0.0276,0.0132,0.0098,0.0122,0.0122,0.0119,0.0119,0.0129,0.0129,0.013,0.013,0,0.0583,0.0608,0.0678,0.0738,0.0765,0.0822,0.09,0.0947,0.0954,0.1014,0.1013,0.0944,0.0831,0.0647,0.0463,0.0326,0.0168,0.0106,0.0148,0.012,0.004,0.0044,-0.001,-0.0011,-0.0012,-0.0013,-0.0014,0,0.0608,0.0648,0.0738,0.079,0.0822,0.0903,0.0965,0.1003,0.1062,0.1098,0.1138,0.1045,0.1004,0.0723,0.0464,0.021,0.0169,0.0052,0.0026,0.0055,0.0027,0.0032,0.0037,0.0025,0.0025,0.0024,0.0024,0,0.0654,0.0686,0.0746,0.0851,0.0929,0.1026,0.1116,0.118,0.1237,0.1289,0.1342,0.1308,0.1052,0.0808,0.0454,0.0275,0.0093,0.0039,0.0057,0.0063,0.0083,0.0057,0.0062,0.0022,0.0022,0.0023,0.0023,0.0023,0.0689,0.0739,0.0817,0.0918,0.1013,0.1133,0.1215,0.1317,0.1429,0.1509,0.1488,0.1444,0.1163,0.0715,0.0414,0.0086,0.0097,-0.0029,-0.0027,-0.0025,-0.0001,0.0016,-0.0053,-0.0053,-0.0054,-0.0054,-0.0054,0,0.0728,0.0786,0.0878,0.0999,0.11,0.1152,0.1307,0.1392,0.1531,0.1601,0.1642,0.1371,0.1096,0.0762,0.0288,0.001,-0.0014,-0.009,-0.0056,-0.0052,-0.0049,-0.0026,-0.0085,-0.0086,-0.0087,-0.0088,0,0,0.0751,0.0834,0.088,0.1044,0.1135,0.128,0.1372,0.1503,0.1591,0.166,0.1637,0.1581,0.1191,0.0843,0.0463,0.0192,0.0132,0.0131,0.0185,0.0275,0.0281,0.0013,0.0056,0,0,0,0,0]}],[{"header":{"parameterUnit":"m.s-1","parameterCategory":2,"la1":30.2991,"la2":30.254,"lo1":-89.0895,"lo2":-89.0444,"dy":0.0017,"dx":0.0017,"nx":28,"ny":28,"refTime":"2024-02-07T09:00:00:Z","depth":"4","parameterNumber":2,"parameterNumberName":"U-component_of_CURRENTS"},"data":[0,0,0,0,0,0,0,0,0,0,0,0,0,0,0,0,0,0,0,0,0,0,0,0,0,0,0,0,0,0,0,0,0,0,0,0,0,0,0,0,0,0,0,0,0,0,0,0,0,0,0,0,0,0,0,0,0,0,0.1949,0.195,0,0.2009,0.2009,0.201,0.2062,0.2063,0.2064,0.2064,0.2138,0.214,0.2141,0,0,0,0,0,0,0,0,0,0,0,0,0,0.1877,0.1878,0.1949,0.195,0.1951,0.2009,0.2009,0.201,0.2062,0.2063,0.2064,0.2065,0.2138,0.2139,0.2141,0,0,0,0,0,0,0,0,0,0,0,0,0,0.1918,0.1879,0.1949,0.1985,0.1989,0.2009,0.2009,0.201,0.2062,0.2063,0.2064,0.2065,0.2138,0.2139,0.2141,0.2129,0,0,0.2147,0.2148,0,0,0,0,0,0,0,0,0.1916,0.192,0.1979,0.1983,0.1987,0.2031,0.2011,0.2051,0.2062,0.2032,0.2065,0.2066,0.2104,0.2109,0.2114,0.2133,0.2136,0.2147,0.2148,0.2149,0.2149,0,0,0,0,0,0,0,0.1913,0.1918,0.1971,0.198,0.1985,0.1998,0.2005,0.2019,0.206,0.2035,0.2039,0.2049,0.2107,0.2112,0.2117,0.2137,0.2147,0.2149,0.215,0.215,0.227,0.2272,0,0,0,0,0,0,0.1908,0.1915,0.1969,0.1973,0.1956,0.1998,0.2006,0.2014,0.2059,0.2068,0.2048,0.2051,0.2109,0.2114,0.212,0.2213,0.2149,0.2151,0.2152,0.2268,0.2271,0.2273,0,0,0,0,0,0,0.1907,0.1912,0.1966,0.1947,0.1955,0.1999,0.2007,0.2015,0.2063,0.2069,0.2078,0.2093,0.211,0.2117,0.2172,0.2212,0.2151,0.2153,0.2266,0.2269,0.2272,0.2332,0,0,0,0,0,0,0.1904,0.1911,0.1937,0.1947,0.1956,0.2003,0.2007,0.2015,0.2065,0.2071,0.211,0.2116,0.2111,0.2169,0.2174,0.2213,0.2155,0.2263,0.2267,0.2271,0.2327,0.2337,0.2345,0,0,0,0,0,0.1901,0.1921,0.1937,0.1945,0.1983,0.2005,0.2011,0.2044,0.2067,0.2092,0.2125,0.2117,0.2197,0.2172,0.2177,0.2218,0.2261,0.2266,0.227,0.2323,0.2335,0.2344,0,0,0,0,0,0,0.1904,0.1929,0.1947,0.1975,0.2003,0.2015,0.2048,0.2068,0.2113,0.2134,0.2139,0.2147,0.2212,0.2209,0.2181,0.2266,0.2229,0.2235,0.2268,0.2279,0.2287,0.2296,0.2156,0,0,0,0,0,0.1916,0.1942,0.1963,0.1992,0.2009,0.2038,0.2061,0.2083,0.2113,0.2136,0.2163,0.2196,0.2227,0.2249,0.2273,0.2315,0.2314,0.2347,0.2356,0.2363,0.2375,0.2407,0.2419,0.2288,0.2288,0.2288,0,0,0.1926,0.1945,0.1962,0.1997,0.2023,0.2051,0.2056,0.2101,0.2138,0.2135,0.2209,0.2231,0.2247,0.2298,0.2327,0.2305,0.24,0.2369,0.2375,0.2383,0.2413,0.2426,0.2437,0.2291,0.2291,0.229,0,0,0.1944,0.1979,0.2003,0.2029,0.2076,0.2091,0.2114,0.2152,0.219,0.2246,0.2262,0.2313,0.2354,0.2376,0.2389,0.2461,0.2448,0.2475,0.2523,0.2554,0.2565,0.2574,0.2586,0.2595,0.2476,0.2476,0.2476,0,0.1961,0.1986,0.2016,0.2045,0.2073,0.2114,0.2145,0.2185,0.2241,0.2274,0.2282,0.237,0.2389,0.2449,0.2482,0.2482,0.2491,0.2478,0.2564,0.2574,0.2582,0.2591,0.2602,0.248,0.2479,0.2479,0.2478,0,0.198,0.2019,0.2038,0.2088,0.2125,0.2159,0.2209,0.2264,0.2312,0.2344,0.2428,0.2457,0.2507,0.2526,0.2529,0.2606,0.259,0.2572,0.2533,0.2599,0.2605,0.2614,0.2484,0.2483,0.2482,0.2481,0,0,0.1963,0.2036,0.2048,0.208,0.215,0.2176,0.2253,0.2316,0.2374,0.2437,0.2502,0.2571,0.2598,0.2616,0.2633,0.2667,0.2739,0.2657,0.2657,0.266,0.2803,0.2624,0.2617,0.2738,0.274,0.2742,0.278,0,0.197,0.2026,0.2063,0.2128,0.2159,0.2223,0.2285,0.2359,0.2425,0.2501,0.2554,0.2624,0.2628,0.2667,0.2706,0.2739,0.2769,0.273,0.2746,0.2746,0.2573,0.2623,0.2749,0.2787,0.2789,0.2791,0.2792,0,0.1965,0.2008,0.2067,0.2149,0.2171,0.2225,0.2333,0.2396,0.2507,0.256,0.2638,0.2679,0.2766,0.2749,0.2834,0.2813,0.2822,0.2831,0.2832,0.2651,0.2585,0.271,0.2808,0.2807,0.2806,0.2805,0.2804,0,0.1921,0.2005,0.2054,0.2083,0.2184,0.224,0.2309,0.2423,0.2484,0.2614,0.2666,0.2757,0.2818,0.2854,0.2892,0.2875,0.296,0.2927,0.2768,0.2756,0.2878,0.2867,0.2975,0.2975,0.2975,0.2974,0.2974,0,0.1885,0.1931,0.2049,0.2074,0.2148,0.2238,0.2328,0.2412,0.2531,0.2594,0.2704,0.2755,0.2854,0.2907,0.2918,0.2872,0.2981,0.2785,0.2756,0.2902,0.2894,0.2884,0.2873,0.2976,0.2975,0.2975,0.2975,0,0.1816,0.189,0.1956,0.2081,0.2127,0.2189,0.2328,0.2384,0.2521,0.2608,0.2653,0.2785,0.2848,0.291,0.2971,0.2886,0.287,0.2824,0.2984,0.2963,0.2636,0.2628,0.2635,0.2629,0.2624,0.262,0.2616,0,0.1776,0.1807,0.1948,0.1991,0.2053,0.2158,0.2217,0.2363,0.2414,0.2596,0.2613,0.2737,0.2799,0.2737,0.2826,0.2813,0.2782,0.2745,0.268,0.2631,0.2604,0.2603,0.2602,0.2609,0.2607,0.2606,0.2605,0,0.1702,0.1773,0.1829,0.192,0.1995,0.2056,0.2157,0.2177,0.233,0.2471,0.2498,0.2523,0.2586,0.2617,0.263,0.2621,0.2751,0.2692,0.2701,0.2639,0.2598,0.2576,0.2581,0.2587,0.259,0.2591,0.2592,0,0.1655,0.1675,0.1764,0.1822,0.1908,0.1928,0.1996,0.2042,0.2106,0.229,0.2296,0.243,0.2557,0.2518,0.2537,0.2508,0.246,0.236,0.2386,0.2406,0.2313,0.2226,0.208,0,0,0,0,0,0.1595,0.16,0.1653,0.17,0.1778,0.1826,0.1935,0.2002,0.2143,0.2095,0.2184,0.2225,0.2246,0.2323,0.2246,0.2446,0.2482,0.2345,0.2383,0.2491,0.2511,0.2422,0,0,0,0,0,0,0.1553,0.1601,0.161,0.1586,0.1593,0.1656,0.172,0.1819,0.1795,0.1948,0.197,0.208,0.2139,0.226,0.22,0.222,0.2194,0.2429,0.2422,0.2479,0.2498,0.2514,0.243,0,0,0,0,0]},{"header":{"parameterUnit":"m.s-1","parameterCategory":2,"la1":30.2991,"la2":30.254,"lo1":-89.0895,"lo2":-89.0444,"dy":0.0017,"dx":0.0017,"nx":28,"ny":28,"refTime":"2024-02-07T09:00:00:Z","depth":"4","parameterNumber":3,"parameterNumberName":"V-component_of_CURRENTS"},"data":[0,0,0,0,0,0,0,0,0,0,0,0,0,0,0,0,0,0,0,0,0,0,0,0,0,0,0,0,0,0,0,0,0,0,0,0,0,0,0,0,0,0,0,0,0,0,0,0,0,0,0,0,0,0,0,0,0,0,0.0179,0.0179,0,0.0153,0.0153,0.0152,0.0135,0.0135,0.0135,0.0135,0.0098,0.0097,0.0096,0,0,0,0,0,0,0,0,0,0,0,0,0,0.0176,0.0176,0.0179,0.0179,0.0179,0.0153,0.0153,0.0152,0.0135,0.0135,0.0135,0.0134,0.0098,0.0097,0.0096,0,0,0,0,0,0,0,0,0,0,0,0,0,0.0165,0.0176,0.0179,0.0167,0.0166,0.0153,0.0153,0.0152,0.0135,0.0135,0.0135,0.0134,0.0098,0.0097,0.0096,0.0088,0,0,0.0091,0.0091,0,0,0,0,0,0,0,0,0.0166,0.0165,0.0169,0.0168,0.0167,0.0148,0.0138,0.0131,0.0135,0.0146,0.0135,0.0134,0.0114,0.0111,0.0105,0.0086,0.0085,0.0091,0.009,0.009,0.0089,0,0,0,0,0,0,0,0.0167,0.0166,0.0168,0.0169,0.0168,0.0151,0.015,0.0136,0.013,0.0145,0.0143,0.0142,0.0113,0.0107,0.0104,0.0084,0.0091,0.009,0.0089,0.0088,0.0061,0.0061,0,0,0,0,0,0,0.0174,0.0167,0.0169,0.0167,0.0167,0.0151,0.015,0.0153,0.013,0.0127,0.0142,0.0142,0.0109,0.0106,0.0103,0.011,0.009,0.0088,0.0088,0.0061,0.0061,0.0061,0,0,0,0,0,0,0.0174,0.0175,0.017,0.0167,0.0165,0.0152,0.0156,0.0153,0.0152,0.0128,0.0125,0.0145,0.0109,0.0105,0.0099,0.0108,0.0088,0.0086,0.0061,0.0061,0.0061,0.0113,0,0,0,0,0,0,0.0174,0.0175,0.0182,0.0168,0.0166,0.017,0.0156,0.0152,0.0151,0.015,0.0129,0.0125,0.0109,0.0101,0.0097,0.0106,0.0085,0.006,0.0061,0.0061,0.0111,0.0115,0.0118,0,0,0,0,0,0.0175,0.0186,0.0183,0.0183,0.0176,0.0171,0.0168,0.0157,0.0152,0.0155,0.0141,0.0126,0.01,0.01,0.0096,0.0104,0.006,0.0061,0.0061,0.011,0.0114,0.0118,0,0,0,0,0,0,0.0187,0.0185,0.0181,0.0191,0.0185,0.0168,0.0171,0.0162,0.0154,0.0154,0.0131,0.0126,0.0122,0.0105,0.0106,0.0095,0.0076,0.0076,0.0115,0.0119,0.0122,0.0139,0.0084,0,0,0,0,0,0.0194,0.0204,0.0194,0.0203,0.0201,0.0187,0.0184,0.0178,0.0167,0.0163,0.0149,0.0132,0.0119,0.0113,0.0098,0.0095,0.0071,0.0095,0.0098,0.0102,0.0111,0.0079,0.008,0.0062,0.0062,0.0062,0,0,0.02,0.0201,0.0206,0.0206,0.02,0.0206,0.0185,0.0186,0.0194,0.016,0.0166,0.0144,0.012,0.0116,0.0113,0.0104,0.0093,0.0102,0.0105,0.0113,0.0079,0.0081,0.0083,0.0062,0.0062,0.0062,0,0,0.0219,0.0219,0.0234,0.0232,0.023,0.0223,0.0227,0.0215,0.0213,0.0212,0.019,0.0177,0.0157,0.0143,0.0132,0.0145,0.0113,0.0137,0.0171,0.0139,0.0141,0.0142,0.0113,0.0111,0.014,0.014,0.014,0,0.0227,0.0247,0.0237,0.0249,0.0256,0.0235,0.0253,0.0246,0.0235,0.0236,0.0222,0.0194,0.0171,0.0168,0.0171,0.0155,0.0131,0.0159,0.0145,0.0145,0.0145,0.0115,0.0112,0.0142,0.0142,0.0142,0.0142,0,0.0255,0.0272,0.0279,0.0293,0.0298,0.0308,0.0301,0.0306,0.0299,0.0286,0.028,0.0247,0.0232,0.0218,0.02,0.0192,0.0173,0.0153,0.0137,0.0151,0.0118,0.0114,0.0146,0.0145,0.0144,0.0144,0,0,0.0274,0.0297,0.0302,0.0322,0.0325,0.0336,0.0351,0.0359,0.0373,0.0348,0.0361,0.0326,0.0302,0.0289,0.0259,0.0231,0.0208,0.0198,0.0195,0.0176,0.0139,0.0123,0.0117,0.0184,0.0184,0.0183,0.0115,0,0.0301,0.0342,0.0346,0.0388,0.0408,0.0404,0.0424,0.0426,0.0417,0.042,0.0381,0.0375,0.0331,0.0327,0.0292,0.0233,0.02,0.0228,0.0124,0.0121,0.011,0.0113,0.0182,0.0112,0.0111,0.011,0.011,0,0.033,0.0357,0.0405,0.0447,0.0457,0.048,0.0515,0.053,0.052,0.0513,0.0491,0.0452,0.0418,0.0375,0.0279,0.0299,0.0226,0.0172,0.0167,0.0135,0.0098,0.0094,0.0102,0.0103,0.0104,0.0104,0.0104,0,0.0357,0.0401,0.0448,0.046,0.0499,0.0528,0.0552,0.0558,0.0584,0.0573,0.058,0.052,0.0504,0.0405,0.0289,0.0284,0.0176,0.0151,0.0066,0.0064,0.0076,0.0075,0.0077,0.0077,0.0077,0.0077,0.0078,0,0.0384,0.0423,0.0468,0.0493,0.056,0.0571,0.0633,0.0644,0.0664,0.0697,0.0633,0.0638,0.051,0.0429,0.0312,0.0182,0.0189,0.0076,0.0047,0.0098,0.0101,0.0073,0.0073,0.0075,0.0075,0.0076,0.0076,0,0.0403,0.0431,0.049,0.0548,0.0576,0.0624,0.0699,0.0735,0.0747,0.0789,0.0791,0.0732,0.0628,0.0483,0.0326,0.0223,0.009,0.0038,0.0111,0.0086,-0.0008,-0.0004,-0.0058,-0.0059,-0.006,-0.0061,-0.0062,0,0.0415,0.0447,0.0534,0.058,0.0612,0.0686,0.0739,0.0779,0.0819,0.0845,0.0868,0.0788,0.0724,0.0499,0.0339,0.0111,0.0072,-0.0002,-0.0012,0.0002,-0.0021,-0.0016,-0.0011,-0.0063,-0.0063,-0.0063,-0.0064,0,0.0435,0.047,0.052,0.0614,0.0684,0.0767,0.0843,0.0879,0.0926,0.0938,0.0929,0.0811,0.0695,0.0509,0.0331,0.0166,0.0044,-0.0012,-0.0012,-0.0022,-0.0005,-0.0025,-0.0019,-0.0067,-0.0066,-0.0066,-0.0066,0,0.0451,0.0489,0.0557,0.0642,0.0733,0.0819,0.0861,0.0912,0.0956,0.0977,0.0975,0.0846,0.0779,0.0538,0.0376,0.021,0.016,0.0094,0.0088,0.009,0.0145,0.019,0.0168,0,0,0,0,0,0.0462,0.0505,0.058,0.0673,0.0763,0.0821,0.0919,0.0951,0.0995,0.0994,0.0987,0.0875,0.0647,0.0556,0.0386,0.0339,0.0118,0.0132,0.0037,-0.0084,-0.0081,-0.0043,0,0,0,0,0,0,0.0469,0.0534,0.0574,0.0682,0.0749,0.0852,0.0918,0.0952,0.0953,0.0972,0.0857,0.0816,0.0596,0.074,0.0377,0.0329,0.024,0.0033,0.0029,-0.0087,-0.0083,-0.008,-0.004,0,0,0,0,0]}]]